Preview of NWS' New Version of Forecast
This preview is not operational and should not be used for support decisions.

Regional Weather Roundup (RWR)

Issued by National Weather Service (NWS)

                            
000
ASUS44 KJAN 160710
RWRMS 

MISSISSIPPI HOURLY WEATHER ROUNDUP
NATIONAL WEATHER SERVICE JACKSON MS
200 AM CDT MON SEP 16 2019

NOTE: "FAIR: INDICATES FEW OR NO CLOUDS BELOW 12,000 FEET WITH NO
SIGNIFICANT WEATHER AND/OR OBSTRUCTIONS TO VISIBILITY.

MSZ001>002-007>008-010>013-018>021-025>028-034>036-160800-
NORTHWEST MISSISSIPPI
  
CITY           SKY/WX    TMP DP  RH WIND       PRES   REMARKS
BATESVILLE       N/A     72  70  94 CALM      30.06S                  
CLARKSDALE       N/A     73  73 100 CALM      30.06S                  
CLEVELAND      FAIR      73  73 100 CALM      30.05S                  
GREENWOOD      FAIR      75  70  84 NE3       30.04F                  
GREENVILLE     FAIR      73  69  87 N3        30.04S                  
OLIVE BRANCH     N/A     73  70  88 CALM      30.07S                  
OXFORD         FAIR      70  70 100 CALM      30.08S                  
WINONA         FAIR      72  72 100 CALM      30.05S FOG              
$$

MSZ003>006-009-014>017-022>024-029>033-037>039-160800-
NORTHEAST MISSISSIPPI
  
CITY           SKY/WX    TMP DP  RH WIND       PRES   REMARKS
ABERDEEN       HAZE      68  52  56 CALM      30.07S VSB<1/4          
COLUMBUS AFB   FAIR      73  72  94 CALM      30.04F FOG              
CORINTH        FAIR      72  70  94 CALM      30.07F FOG              
GOLDN TRIANGLE FAIR      75  73  93 CALM      30.05F                  
STARKVILLE       N/A     72  70  94 CALM      30.06S                  
TUPELO         FAIR      74  70  87 N5        30.06S                  
$$

MSZ040-058-160800-
CENTRAL MISSISSIPPI
  
CITY           SKY/WX    TMP DP  RH WIND       PRES   REMARKS
JACKSON INTL   FAIR      74  69  85 CALM      30.04S                  
JACKSON HAWKNS FAIR      76  71  85 CALM      30.05R                  
MADISON        FAIR      72  72 100 CALM      30.06S                  
MERIDIAN KEY   FAIR      73  70  90 NW3       30.04S                  
MERIDIAN NAS   FAIR      73  70  90 CALM      30.05S                  
RAYMOND        FAIR      72  72 100 CALM      30.04S FOG              
VICKSBURG VKS  SUNNY     72  72 100 CALM      30.04R                  
$$

MSZ059>079-160800-
SOUTH MISSISSIPPI
  
CITY           SKY/WX    TMP DP  RH WIND       PRES   REMARKS
BROOKHAVEN     FAIR      72  70  94 CALM      30.05S                  
HATTIESBURG    FAIR      73  70  90 CALM      30.03S                  
LAUREL         SUNNY     71  70  96 NW3       30.03S                  
MCCOMB         FAIR      74  71  91 CALM      30.03S                  
NATCHEZ        FAIR      72  71  97 CALM      30.04S                  
PINE BELT      FAIR      72  70  93 CALM      30.04S                  
$$

MSZ080>082-160800-
COASTAL MISSISSIPPI
  
CITY           SKY/WX    TMP DP  RH WIND       PRES   REMARKS
BILOXI         FAIR      78  73  85 NE3       29.99S                  
PASCAGOULA     FAIR      72  70  93 CALM      30.00S                  
GULFPORT       FAIR      77  72  84 CALM      29.99S                  
$$

LAZ007>009-015>016-023>026-160800-
NORTHEAST LOUISIANA
  
CITY           SKY/WX    TMP DP  RH WIND       PRES   REMARKS
BASTROP        FAIR      73  73  98 CALM      30.05S                  
TALLULAH/VBURG FAIR      74  70  87 CALM      30.03S                  
VIDALIA        FAIR      72  70  92 CALM      30.02S                  
$$